DW8090 Weather Reports


time (UTC)temp
C
wind
direction
speed
KPH
gust
KPH
rain 1hr
cm
rain 24hr
cm
rain mn
cm
humidity
%
barometer
mb
20190822004037 9 180 0.0 0.0 0.00 0.00 0.00 91 1031.1
20190822003037 9 180 0.0 0.0 0.00 0.00 0.00 91 1031.0
20190822001037 9 180 0.0 0.0 0.00 0.00 0.00 90 1031.1
20190821234037 10 45 0.0 0.0 0.00 0.00 0.00 88 1031.0
20190821233038 10 225 0.0 1.6 0.00 0.00 0.00 88 1031.0
20190821231036 10 225 0.0 1.6 0.00 0.00 0.00 87 1031.1
20190821230033 10 225 0.0 1.6 0.00 0.00 0.00 86 1031.2
20190821221036 11 251 0.0 1.6 0.00 0.00 0.00 84 1031.3
20190821220033 11 225 0.0 1.6 0.00 0.00 0.00 83 1031.5
20190821214036 11 225 0.0 1.6 0.00 0.00 0.00 81 1031.3
20190821213038 11 225 0.0 1.6 0.00 0.00 0.00 81 1031.3
20190821211036 11 162 0.0 1.6 0.00 0.00 0.00 80 1031.4
20190821210037 12 209 0.0 1.6 0.00 0.00 0.00 78 1031.2
20190821201036 13 225 0.0 1.6 0.00 0.00 0.00 76 1031.2
20190821200033 13 270 0.0 3.2 0.00 0.00 0.00 75 1031.2
20190821194036 13 225 0.0 1.6 0.00 0.00 0.00 74 1031.2
20190821193036 14 270 0.0 3.2 0.00 0.00 0.00 73 1031.0
20190821191035 15 225 0.0 1.6 0.00 0.00 0.00 70 1030.8
20190821190034 15 225 0.0 1.6 0.00 0.00 0.00 70 1030.9
20190821184037 16 191 0.0 1.6 0.00 0.00 0.00 67 1030.8
20190821183037 17 181 1.6 3.2 0.00 0.00 0.00 64 1030.6
20190821181036 18 234 0.0 1.6 0.00 0.00 0.00 59 1030.6
20190821171036 21 0 0.0 1.6 0.00 0.00 0.00 39 1030.4
20190821163132 22 88 0.0 1.6 0.00 0.00 0.00 32 1030.4
20190821160034 27 33 0.0 1.6 0.00 0.00 0.00 24 1030.5
20190821154036 26 180 0.0 1.6 0.00 0.00 0.00 29 1030.7
20190821153038 27 35 0.0 3.2 0.00 0.00 0.00 26 1030.8
20190821151035 23 292 0.0 3.2 0.00 0.00 0.00 32 1030.8
20190821150032 25 45 0.0 1.6 0.00 0.00 0.00 30 1030.6
20190821144038 25 90 0.0 3.2 0.00 0.00 0.00 30 1030.8
20190821143037 26 225 1.6 4.8 0.00 0.00 0.00 29 1030.8
20190821141036 26 0 0.0 3.2 0.00 0.00 0.00 30 1030.9
20190821140032 24 45 0.0 4.8 0.00 0.00 0.00 34 1031.0
20190821134036 23 0 0.0 1.6 0.00 0.00 0.00 34 1031.0
20190821133036 24 26 1.6 3.2 0.00 0.00 0.00 32 1031.1
20190821131036 25 180 0.0 3.2 0.00 0.00 0.00 34 1031.2
20190821124035 26 246 0.0 4.8 0.00 0.00 0.00 31 1031.2
20190821114035 25 225 0.0 4.8 0.00 0.00 0.00 35 1031.6
20190821110034 24 24 1.6 4.8 0.00 0.00 0.00 37 1031.8
20190821104036 22 51 0.0 4.8 0.00 0.00 0.00 39 1031.9
20190821103036 22 137 1.6 4.8 0.00 0.00 0.00 41 1032.0
20190821101037 21 126 0.0 3.2 0.00 0.00 0.00 40 1032.1
20190821100033 22 205 0.0 4.8 0.00 0.00 0.00 41 1032.1
20190821094037 21 355 0.0 4.8 0.00 0.00 0.00 49 1032.2
20190821091037 21 225 0.0 3.2 0.00 0.00 0.00 52 1032.3
20190821090036 21 45 0.0 1.6 0.00 0.00 0.00 53 1032.4
20190821084036 20 73 1.6 3.2 0.00 0.00 0.00 53 1032.3
20190821083036 21 105 0.0 1.6 0.00 0.00 0.00 53 1032.5
20190821081037 20 173 0.0 1.6 0.00 0.00 0.00 67 1032.6
20190821080033 17 6 0.0 1.6 0.00 0.00 0.00 71 1032.4
20190821074035 17 86 0.0 3.2 0.00 0.00 0.00 68 1032.6
20190821070032 16 178 0.0 1.6 0.00 0.00 0.00 92 1032.5
20190821064036 11 45 0.0 1.6 0.00 0.00 0.00 97 1032.4
20190821061035 10 0 0.0 1.6 0.00 0.00 0.00 98 1032.3
20190821054035 9 0 0.0 1.6 0.00 0.00 0.00 98 1032.2
20190821053038 8 270 0.0 1.6 0.00 0.00 0.00 98 1032.1
20190821051035 7 225 0.0 1.6 0.00 0.00 0.00 97 1032.0
20190821050032 7 225 0.0 1.6 0.00 0.00 0.00 97 1031.9
20190821044036 7 225 0.0 1.6 0.00 0.00 0.00 97 1031.8
20190821040032 7 0 0.0 0.0 0.00 0.00 0.00 97 1031.5
20190821033038 7 270 0.0 0.0 0.00 0.00 0.00 98 1031.3
20190821031035 8 180 0.0 0.0 0.00 0.00 0.00 98 1031.0
20190821023035 8 135 0.0 0.0 0.00 0.00 0.00 96 1030.8
20190821021035 8 135 0.0 0.0 0.00 0.00 0.00 96 1030.7
20190821020031 9 135 0.0 0.0 0.00 0.00 0.00 96 1030.7
20190821014035 8 225 0.0 1.6 0.00 0.00 0.00 96 1030.5
20190821013035 9 225 0.0 1.6 0.00 0.00 0.00 96 1030.4
20190821011035 9 338 0.0 0.0 0.00 0.00 0.00 95 1030.5
20190821010032 9 225 0.0 0.0 0.00 0.00 0.00 95 1030.4